Location: Unspecified
(48.8656°N, 0.0000°E)
Time: 09:37:49
(UTC+00:00)

Vanguard 1 Rocket - Pass Details

Date: 23 June 2019
Orbit: 651 x 4225 km, 34.3° (Epoch: 19 July)

Event Time Altitude Azimuth Distance (km) Brightness Sun altitude
Rises 21:15:23 0° 266° (W) 5,610 11.9 -8.7°
Reaches altitude 10° 21:20:51 10° 252° (WSW) 3,908 10.9 -9.2°
Maximum altitude 21:26:59 20° 211° (SSW) 2,479 9.4 -9.8°
Enters shadow 21:31:13 10° 167° (SSE) 2,604 9.2 -10.2°
Drops below altitude 10° 21:31:20 10° 166° (SSE) 2,625 - -10.3°
Sets 21:34:06 0° 147° (SSE) 3,293 - -10.5°
